This is the latest recevied weather packets stored in our database for station/object KG7MRB. If no packets are shown the sender has not sent any weather packets the latest 10 day(s).
| Time | Temp. | Humidity | Pressure | Rain* | Wind** | Luminosity | Snow |
|---|---|---|---|---|---|---|---|
| 1777920387 | 26.11° C | 38% | 1028.3 hPa | 0 mm | - | 614 W/m² | - |
| 1777920081 | 26.11° C | 38% | 1028.1 hPa | 0 mm | - | 595 W/m² | - |
| 1777919779 | 25.56° C | 38% | 1028.2 hPa | 0 mm | - | 601 W/m² | - |
| 1777919477 | 25.56° C | 41% | 1028.1 hPa | 0 mm | - | 647 W/m² | - |
| 1777919174 | 25.56° C | 38% | 1028.3 hPa | 0 mm | - | 588 W/m² | - |
| 1777918871 | 26.11° C | 38% | 1028.1 hPa | 0 mm | - | 499 W/m² | - |
| 1777918569 | 25.56° C | 38% | 1028.1 hPa | 0 mm | - | 527 W/m² | - |
| 1777918266 | 25.56° C | 41% | 1028.4 hPa | 0 mm | - | 535 W/m² | - |
| 1777917965 | 25.56° C | 38% | 1028 hPa | 0 mm | - | 512 W/m² | - |
| 1777917664 | 25° C | 40% | 1028.1 hPa | 0 mm | - | 524 W/m² | - |
| 1777917360 | 25° C | 37% | 1028.1 hPa | 0 mm | - | 561 W/m² | - |
| 1777917057 | 25° C | 37% | 1028.2 hPa | 0 mm | - | 496 W/m² | - |
| 1777916755 | 25° C | 35% | 1028.2 hPa | 0 mm | - | 503 W/m² | - |
| 1777916452 | 25° C | 39% | 1028 hPa | 0 mm | - | 517 W/m² | - |
| 1777916149 | 25° C | 41% | 1028.1 hPa | 0 mm | - | 459 W/m² | - |
| 1777915846 | 24.44° C | 43% | 1028.2 hPa | 0 mm | - | 463 W/m² | - |
| 1777915542 | 23.89° C | 45% | 1028.1 hPa | 0 mm | - | 488 W/m² | - |
| 1777915239 | 23.33° C | 45% | 1028.3 hPa | 0 mm | - | 468 W/m² | - |
| 1777914936 | 23.89° C | 49% | 1028.3 hPa | 0 mm | - | 452 W/m² | - |
| 1777914633 | 23.89° C | 49% | 1028.6 hPa | 0 mm | - | 462 W/m² | - |
| 1777914328 | 23.33° C | 50% | 1028.7 hPa | 0 mm | - | 444 W/m² | - |
| 1777914026 | 22.78° C | 52% | 1028.6 hPa | 0 mm | - | 456 W/m² | - |
| 1777913722 | 22.78° C | 50% | 1028.8 hPa | 0 mm | - | 463 W/m² | - |
| 1777913419 | 21.67° C | 52% | 1028.8 hPa | 0 mm | - | 408 W/m² | - |
| 1777913115 | 21.11° C | 57% | 1028.8 hPa | 0 mm | - | 434 W/m² | - |
* Rain latest hour (hover to see other rain measurements)
** Current wind speed in m/s (hover to see current wind gust speed)